Location: Brachbach
(49.1847°N, 9.7240°E)
Time: 07:12:38
(UTC+00:00)

FO-29 - Pass Details

Date: 21 March 2026
Orbit: 801 x 1320 km, 98.5° (Epoch: 17 April)

Event Time Altitude Azimuth Distance (km) Brightness Sun altitude
Rises 04:30:04 0° 98° (E) 3,676 14.1 -9.3°
Reaches altitude 10° 04:33:38 10° 76° (ENE) 2,834 13.6 -8.7°
Maximum altitude 04:36:58 15° 44° (NE) 2,582 12.6 -8.2°
Drops below altitude 10° 04:40:29 10° 13° (NNE) 3,032 12.4 -7.6°
Sets 04:44:30 0° 353° (N) 4,100 12.8 -7.0°
